This is the latest recevied weather packets stored in our database for station/object DL8TF-13. If no packets are shown the sender has not sent any weather packets the latest 10 day(s).
| Time | Temp. | Humidity | Pressure | Rain* | Wind** | Luminosity | Snow |
|---|---|---|---|---|---|---|---|
| 1777446190 | 13.33° C | 38% | 989 hPa | - | - | - | - |
| 1777445590 | 13.33° C | 37% | 989 hPa | - | - | - | - |
| 1777444389 | 12.78° C | 38% | 989 hPa | - | - | - | - |
| 1777443789 | 12.78° C | 38% | 989 hPa | - | - | - | - |
| 1777443189 | 12.22° C | 39% | 989 hPa | - | - | - | - |
| 1777442589 | 12.22° C | 39% | 989 hPa | - | - | - | - |
| 1777441989 | 12.22° C | 39% | 989 hPa | - | - | - | - |
| 1777441389 | 11.67° C | 41% | 989 hPa | - | - | - | - |
| 1777440789 | 11.67° C | 43% | 989 hPa | - | - | - | - |
| 1777440189 | 11.67° C | 40% | 989 hPa | - | - | - | - |
| 1777439589 | 11.67° C | 41% | 989 hPa | - | - | - | - |
| 1777438989 | 11.67° C | 41% | 988 hPa | - | - | - | - |
| 1777438389 | 11.67° C | 41% | 988 hPa | - | - | - | - |
| 1777437789 | 11.67° C | 41% | 988 hPa | - | - | - | - |
| 1777437189 | 11.11° C | 44% | 988 hPa | - | - | - | - |
| 1777436589 | 11.11° C | 45% | 988 hPa | - | - | - | - |
| 1777435989 | 11.67° C | 43% | 988 hPa | - | - | - | - |
| 1777435388 | 11.67° C | 41% | 988 hPa | - | - | - | - |
| 1777434188 | 12.22° C | 42% | 988 hPa | - | - | - | - |
| 1777433588 | 11.67° C | 42% | 987 hPa | - | - | - | - |
| 1777432988 | 12.22° C | 43% | 987 hPa | - | - | - | - |
| 1777432388 | 12.22° C | 42% | 987 hPa | - | - | - | - |
| 1777431788 | 12.22° C | 41% | 987 hPa | - | - | - | - |
| 1777426388 | 13.33° C | 41% | 987 hPa | - | - | - | - |
| 1777422787 | 14.44° C | 39% | 987 hPa | - | - | - | - |
* Rain since midnight (hover to see other rain measurements)
** Current wind speed in m/s (hover to see current wind gust speed)